Location: Greenwich
(51.4790°N, 0.0090°E)
Time: 23:09:52
(UTC+01:00)

N. Korean satellite - Pass Details

Date: 30 September 2021
Orbit: 450 x 494 km, 97.3° (Epoch: 28 October)

Event Time Altitude Azimuth Distance (km) Brightness Sun altitude
Rises 05:16:19 0° 29° (NNE) 2,547 10.9 -16.6°
Reaches altitude 10° 05:19:07 10° 54° (NE) 1,671 10.4 -16.2°
Maximum altitude 05:21:14 15° 90° (E) 1,398 10.0 -15.9°
Drops below altitude 10° 05:23:21 10° 126° (SE) 1,676 9.8 -15.6°
Sets 05:26:10 0° 151° (SSE) 2,559 10.4 -15.2°
